STARLINK-1364, 45589

Orbit data source: Space-Track

STARLINK-1364, 45589 is a payload satellite owned by SpaceX/Seattle (US) in LEO that was launched on Wed, 22 Apr 2020 UTC via an FALCON 9 launch vehicle from the Air Force Eastern Test Range (AFETR). Payload-class satellites include a variety of spacecraft equipped with specific instruments for various scientific and technological missions. These include communications satellites like Starlink; space stations such as the ISS; scientific satellites like the Hubble; Earth observation satellites from companies like Planet Labs, Umbra, and HawkEye 360; GPS; miniature CubeSats for education and research; and military/defense satellites.

Loading next visibility...
Identifier
45589, 2020-025BL
Orbit
LEO
Country
Flag of USUS
Related business
Manufacturer
SpaceX/Seattle
Mission
Operational Commercial Communications
Bus & Motor
STARLINK, Unknown motor
Mass
260 kg wet, ~248 kg dry
Launch date (UTC)
2020-04-22 (5 years ago)
Launch vehicle
FALCON 9
Launch site
Air Force Eastern Test Range (AFETR)
Object type
Payload
Rocket body
Debris
Shape & HBR
Box + 1 Pan, 10.1 m
Radar Cross Section
13.562 m², Large (>1 m²)

Expand to show TLE details & history
Last TLE update: 10 hours ago

TLE from 10 hours ago
0 STARLINK-1364
1 45589U 20025BL  25289.18573397  .00002971  00000-0  21818-3 0  9991
2 45589  53.0555   5.3299 0001524  98.3387 261.7775 15.06412785303723
Epoch: 2025-10-16T04:27Z
TLE epoch observation values (Epoch: 2025-10-16T04:27:27.415Z)
Latitude
-0.00003°
Longitude
-86.48343°
Altitude
548.203 km
Speed
7.589 km/s
True Right ascension
00h 21m 19s
True Declination
0° 00' 00"
Sunlit
Object was in full shadow at epoch
Visualization orbit readout
Latitude
Unknown
Longitude
Unknown
Altitude
Unknown
Speed
Unknown
Apparent Right ascension
Unknown
Apparent Declination
Unknown
Sunlit
N/A
Visualization observer readout
Local Sidereal Time
09:11:03
Azimuth
Unknown
Elevation
Unknown
Doppler factor
Unknown
Orbital elements
Apogee altitude
548.498 km
Perigee altitude
546.387 km
Semi-major axis
6,925.58 km
Eccentricity
0.00015
Inclination
53.0555°
RAAN
5.3299°
Arg. of periapsis
98.3387°
True anomaly
261.76022°
Mean anomaly
261.7775°
Eccentric anomaly
261.76886°
Mean motion
3.76581 °/min
Orbital period
95.6 mins
BSTAR
0.00021818
Loading maneuver chart data...
Computing Atmospheric mass density...

Documentation

Showing up to 5 results
|